TimeCDT,TemperatureF,Dew PointF,Humidity,Sea Level PressureIn,VisibilityMPH,Wind Direction,Wind SpeedMPH,Gust SpeedMPH,PrecipitationIn,Events,Conditions,WindDirDegrees,DateUTC
12:48 AM,35.6,33.8,93,29.96,6.0,WSW,4.6,-,0.00,,Overcast,240,2012-10-11 05:48:00
12:53 AM,36.0,34.0,93,29.98,6.0,WSW,3.5,-,0.00,Rain,Light Rain,250,2012-10-11 05:53:00
1:04 AM,35.6,33.8,93,29.95,6.0,Calm,Calm,-,0.00,Rain,Light Rain,0,2012-10-11 06:04:00
1:33 AM,35.6,33.8,93,29.93,5.0,Calm,Calm,-,0.00,Rain,Light Rain,0,2012-10-11 06:33:00
1:53 AM,35.1,34.0,96,29.95,5.0,Calm,Calm,-,0.00,,Overcast,0,2012-10-11 06:53:00
2:53 AM,35.1,34.0,96,29.93,5.0,Calm,Calm,-,0.00,,Overcast,0,2012-10-11 07:53:00
3:07 AM,35.6,33.8,93,29.90,5.0,Calm,Calm,-,0.00,,Overcast,0,2012-10-11 08:07:00
3:24 AM,35.6,33.8,93,29.90,5.0,Calm,Calm,-,0.00,,Overcast,0,2012-10-11 08:24:00
3:53 AM,35.1,34.0,96,29.92,6.0,Calm,Calm,-,0.00,,Overcast,0,2012-10-11 08:53:00
4:11 AM,35.6,33.8,93,29.90,6.0,Calm,Calm,-,0.00,,Overcast,0,2012-10-11 09:11:00
4:48 AM,35.6,33.8,93,29.91,6.0,NW,3.5,-,0.00,,Overcast,310,2012-10-11 09:48:00
4:53 AM,35.1,33.1,92,29.94,5.0,NW,4.6,-,0.00,,Overcast,310,2012-10-11 09:53:00
5:53 AM,34.0,33.1,96,29.96,7.0,West,4.6,-,0.00,,Overcast,280,2012-10-11 10:53:00
6:53 AM,34.0,32.0,92,29.98,10.0,West,4.6,-,N/A,,Overcast,260,2012-10-11 11:53:00
7:53 AM,33.1,30.9,92,30.00,10.0,WSW,5.8,-,N/A,,Partly Cloudy,250,2012-10-11 12:53:00
8:53 AM,37.0,34.0,89,30.03,10.0,WNW,9.2,-,N/A,,Clear,300,2012-10-11 13:53:00
9:50 AM,37.4,33.8,87,30.03,10.0,WNW,12.7,17.3,N/A,,Mostly Cloudy,290,2012-10-11 14:50:00
9:53 AM,37.9,33.1,83,30.06,10.0,WNW,12.7,19.6,N/A,,Mostly Cloudy,300,2012-10-11 14:53:00
10:00 AM,39.2,33.8,81,30.03,10.0,WNW,10.4,19.6,N/A,,Scattered Clouds,300,2012-10-11 15:00:00
10:17 AM,37.4,33.8,87,30.05,10.0,WNW,8.1,16.1,N/A,,Mostly Cloudy,300,2012-10-11 15:17:00
10:53 AM,39.9,30.9,70,30.09,10.0,West,12.7,19.6,N/A,,Mostly Cloudy,280,2012-10-11 15:53:00
11:53 AM,42.1,30.0,62,30.12,10.0,WNW,15.0,27.6,N/A,,Mostly Cloudy,300,2012-10-11 16:53:00
12:44 PM,42.8,28.4,57,30.10,10.0,NW,18.4,24.2,N/A,,Mostly Cloudy,310,2012-10-11 17:44:00
12:53 PM,45.0,28.9,53,30.13,10.0,WNW,17.3,26.5,N/A,,Mostly Cloudy,300,2012-10-11 17:53:00
1:53 PM,41.0,26.1,55,30.16,10.0,NW,12.7,27.6,N/A,,Mostly Cloudy,310,2012-10-11 18:53:00
2:53 PM,45.0,27.0,49,30.18,10.0,NW,12.7,20.7,N/A,,Overcast,320,2012-10-11 19:53:00
3:53 PM,44.1,26.1,49,30.19,10.0,West,11.5,23.0,N/A,,Clear,280,2012-10-11 20:53:00
5:53 PM,39.9,27.0,60,30.24,10.0,NW,9.2,-,N/A,,Mostly Cloudy,320,2012-10-11 22:53:00
6:53 PM,37.9,28.0,68,30.27,10.0,NW,4.6,-,N/A,,Overcast,310,2012-10-11 23:53:00
8:53 PM,36.0,28.9,76,30.32,10.0,WNW,4.6,-,N/A,,Overcast,290,2012-10-12 01:53:00
9:53 PM,37.0,28.9,73,30.34,10.0,WNW,4.6,-,N/A,,Overcast,300,2012-10-12 02:53:00
10:53 PM,36.0,28.9,76,30.36,10.0,West,3.5,-,N/A,,Overcast,270,2012-10-12 03:53:00
11:53 PM,33.1,27.0,78,30.38,10.0,West,5.8,-,N/A,,Mostly Cloudy,260,2012-10-12 04:53:00